Simultaneous Nadir Overpasses (SNOs) Predictions

Prediction of SNOs between TERRA and METOP-C Satellite Orbit:

Table of predicted SNOs for the next 14.0 days since TLE Epoch: 12/5/2020
Index Date (TERRA) Time (TERRA) Lat,Lon (TERRA) SZA (TERRA ) Date (METOP-C) Time (METOP-C) Lat,Lon (METOP-C) SZA (METOP-C ) Distance(km) Time Diff (sec)
1 12/06/2020 00:48:13 -81.27, 34.46 73.41 12/06/2020 00:47:12 -81.27, 34.28 73.46 3.08 61
2 12/06/2020 01:37:39 81.28,-157.79 106.62 12/06/2020 01:37:52 81.28,-157.79 106.62 0.07 13
3 12/08/2020 20:22:27 -81.26, 100.75 73.16 12/08/2020 20:21:36 -81.27, 100.57 73.21 3.12 51
4 12/08/2020 21:11:53 81.27, -91.52 106.86 12/08/2020 21:12:16 81.28, -91.50 106.88 0.89 23
5 12/11/2020 15:56:39 -81.28, 167.37 72.93 12/11/2020 15:55:58 -81.27, 167.23 72.97 2.44 41
6 12/11/2020 16:46:05 81.28, -24.93 107.08 12/11/2020 16:46:38 81.28, -24.84 107.11 1.51 33
7 12/14/2020 11:30:52 -81.28,-126.06 72.77 12/14/2020 11:30:21 -81.27,-126.13 72.80 1.36 31
8 12/14/2020 12:20:18 81.28, 41.62 107.24 12/14/2020 12:21:01 81.28, 41.79 107.28 3.02 43
9 12/17/2020 07:05:06 -81.26, -59.93 72.73 12/17/2020 07:04:45 -81.27, -59.90 72.73 0.98 21



Historial Predications of SNOs between TERRA and METOP-C
